, FL

(GMT )
Bonifay

Weather History for K1J0 - August, 2019

Change the Weather History Date:

Thursday, August 1, 2019

  Actual Average (WUND) Record (WUND)
Temperature  
Mean Temperature 84 °F -  
Max Temperature 96 °F - - (-1)
Min Temperature 72 °F - - (-1)
Cooling Degree Days 19    
Growing Degree Days 34 (Base 50)    
Moisture  
Dew Point 70 °F    
Average Humidity 68    
Maximum Humidity 96    
Minimum Humidity 41    
Precipitation  
Precipitation 0.30 in - - ()
Sea Level Pressure  
Sea Level Pressure 29.92 in    
Wind  
Wind Speed 2 mph (South)    
Max Wind Speed 12 mph    
Max Gust Speed 23 mph    
Visibility 9 miles    
Events Rain , Thunderstorm    
Averages and records for this station are not official NWS values.
T = Trace of Precipitation, MM = Missing Value Source: NWS Daily Summary

Daily Weather History Graph

Daily Weather History Graph

Search for Another Location

Airport or City:

Astronomy

Aug. 01, 2019 Rise Set
Actual Time 6:59 AM EDT 8:37 PM EDT
Civil Twilight 6:33 AM EDT 9:03 PM EDT
Nautical Twilight 6:02 AM EDT 9:34 PM EDT
Astronomical Twilight 5:28 AM EDT 10:07 PM EDT
Moon 7:24 AM EDT (8/1) 9:25 PM EDT (8/1)
Length of Visible Light 14h 30m
Length of Day
13h 37m
New Moon, 0% of the Moon is Illuminated
Aug 1
New Moon
Aug 7
First Quarter
Aug 15
Full
Aug 23
Last Quarter
Aug 30
New

Hourly Weather History & Observations

Time (EDT) Temp. Heat Index Dew Point Humidity Pressure Visibility Wind Dir Wind Speed Gust Speed Precip Events Conditions
1:58 AM 75.0 °F - 71.1 °F 87% 29.92 in 10.0 mi Calm Calm - N/A   Clear
2:58 AM 73.9 °F - 71.1 °F 91% 29.91 in 10.0 mi Calm Calm - N/A   Clear
3:58 AM 73.9 °F - 71.1 °F 91% 29.89 in 9.0 mi Calm Calm - N/A   Clear
4:58 AM 73.0 °F - 71.1 °F 93% 29.89 in 8.0 mi Calm Calm - N/A   Clear
5:58 AM 72.0 °F - 70.0 °F 93% 29.89 in 8.0 mi Calm Calm - N/A   Clear
6:58 AM 72.0 °F - 70.0 °F 93% 29.91 in 5.0 mi Calm Calm - N/A   Clear
7:58 AM 73.9 °F - 71.1 °F 91% 29.93 in 8.0 mi Calm Calm - N/A   Clear
8:58 AM 80.1 °F 83.8 °F 72.0 °F 76% 29.95 in 10.0 mi Calm Calm - N/A   Clear
9:58 AM 86.0 °F 91.5 °F 71.1 °F 61% 29.96 in 10.0 mi Calm Calm - N/A   Clear
11:58 AM 91.0 °F 95.6 °F 69.1 °F 48% 29.96 in 10.0 mi Variable 3.5 mph - N/A   Clear
12:58 PM 91.0 °F 95.6 °F 69.1 °F 48% 29.94 in 10.0 mi Variable 3.5 mph - N/A   Clear
1:58 PM 96.1 °F 102.9 °F 70.0 °F 43% 29.91 in 10.0 mi Variable 3.5 mph - N/A   Partly Cloudy
2:58 PM 93.9 °F 98.6 °F 68.0 °F 43% 29.89 in 10.0 mi South 4.6 mph - N/A   Scattered Clouds
3:27 PM 93.9 °F 99.1 °F 69.1 °F 44% 30.00 in 10.0 mi ESE 5.8 mph - N/A Thunderstorm Thunderstorm
3:46 PM 93.9 °F 97.5 °F 66.9 °F 41% 30.00 in 10.0 mi South 5.8 mph - N/A Thunderstorm Scattered Clouds
3:58 PM 93.0 °F 96.4 °F 66.9 °F 42% 29.87 in 10.0 mi South 3.5 mph - N/A   Partly Cloudy
4:58 PM 86.0 °F 90.7 °F 70.0 °F 59% 29.85 in 10.0 mi South 10.4 mph - N/A   Clear
5:58 PM 89.1 °F 93.7 °F 69.1 °F 52% 29.84 in 10.0 mi SSW 6.9 mph - N/A   Clear
6:58 PM 90.0 °F 95.4 °F 70.0 °F 52% 29.84 in 10.0 mi SSW 5.8 mph - N/A   Clear
7:58 PM 87.1 °F 92.8 °F 71.1 °F 59% 29.83 in 10.0 mi SSW 3.5 mph - N/A   Clear
8:58 PM 84.0 °F 89.6 °F 72.0 °F 67% 29.86 in 10.0 mi West 3.5 mph - N/A   Clear
9:15 PM 82.9 °F 88.0 °F 72.0 °F 69% 29.98 in 10.0 mi WSW 4.6 mph - N/A Thunderstorm Thunderstorm
9:58 PM 82.0 °F 85.9 °F 70.0 °F 67% 29.89 in 10.0 mi Variable 6.9 mph - N/A Thunderstorm Thunderstorm
10:42 PM 73.0 °F - 72.0 °F 96% 30.06 in 3.0 mi North 11.5 mph 23.0 mph 0.21 in Rain , Thunderstorm Thunderstorms and Rain
10:58 PM 73.0 °F - 72.0 °F 96% 29.94 in 6.0 mi ENE 9.2 mph - 0.30 in Rain , Thunderstorm Thunderstorms and Rain